Jonesville, VA

9:27 PM EDT on July 24, 2017 (GMT -0400)
Jonesville

Weather History for K0VG - November, 2012

Change the Weather History Date:

Friday, November 30, 2012

  Actual Average (KLNP) Record (KLNP)
Temperature  
Mean Temperature 40 °F -  
Max Temperature 57 °F 47 °F 64 °F (1998)
Min Temperature 23 °F 31 °F 21 °F (1999)
Degree Days  
Heating Degree Days 25    
Moisture  
Dew Point 32 °F    
Average Humidity 81    
Maximum Humidity 100    
Minimum Humidity 48    
Precipitation  
Precipitation 0.00 in - - ()
Sea Level Pressure  
Sea Level Pressure 30.33 in    
Wind  
Wind Speed 1 mph (SW)    
Max Wind Speed 16 mph    
Max Gust Speed 21 mph    
Visibility 10 miles    
Events Rain    
Averages and records for this station are not official NWS values.
T = Trace of Precipitation, MM = Missing Value Source: NWS Daily Summary

Daily Weather History Graph

Daily Weather History Graph

Search for Another Location

Airport or City:

Trip Planner

Search our weather history database for the weather conditions in past years. The results will help you decide how hot, cold, wet, or windy it might be!

Date:

Astronomy

Nov. 30, 2012 Rise Set
Actual Time 7:26 AM EST 5:17 PM EST
Civil Twilight 6:57 AM EST 5:45 PM EST
Nautical Twilight 6:25 AM EST 6:17 PM EST
Astronomical Twilight 5:54 AM EST 6:48 PM EST
Moon 7:10 PM EST (11/30) 8:57 AM EST (11/30)
Length of Visible Light 10h 47m
Length of Day
9h 51m
Waning Gibbous, 96% of the Moon is Illuminated
Nov 30
Waning Gibbous
Dec 6
Last Quarter
Dec 13
New
Dec 20
First Quarter
Dec 28
Full

Hourly Weather History & Observations

Time (EST) Temp. Dew Point Humidity Pressure Visibility Wind Dir Wind Speed Gust Speed Precip Events Conditions
12:15 AM 26.6 °F 26.6 °F 100% 30.36 in 10.0 mi Calm Calm - N/A   Unknown
12:35 AM 26.6 °F 26.6 °F 100% 30.36 in 10.0 mi Calm Calm - N/A   Unknown
12:55 AM 26.6 °F 26.6 °F 100% 30.36 in 10.0 mi Calm Calm - N/A   Unknown
1:15 AM 26.6 °F 26.6 °F 100% 30.35 in 10.0 mi Calm Calm - N/A   Unknown
1:35 AM 28.4 °F 26.6 °F 93% 30.35 in 10.0 mi Calm Calm - N/A   Unknown
1:55 AM 26.6 °F 24.8 °F 93% 30.36 in 10.0 mi Calm Calm - N/A   Unknown
2:15 AM 26.6 °F 26.6 °F 100% 30.36 in 10.0 mi Calm Calm - N/A   Unknown
2:35 AM 26.6 °F 24.8 °F 93% 30.36 in 10.0 mi Calm Calm - N/A   Unknown
2:55 AM 24.8 °F 24.8 °F 100% 30.36 in 10.0 mi Calm Calm - N/A   Unknown
3:15 AM 26.6 °F 24.8 °F 93% 30.36 in 10.0 mi Calm Calm - N/A   Unknown
3:35 AM 26.6 °F 24.8 °F 93% 30.36 in 10.0 mi Calm Calm - N/A   Unknown
3:55 AM 26.6 °F 24.8 °F 93% 30.36 in 10.0 mi Calm Calm - N/A   Unknown
4:15 AM 26.6 °F 24.8 °F 93% 30.36 in 10.0 mi Calm Calm - N/A   Unknown
4:35 AM 24.8 °F 23.0 °F 93% 30.36 in 10.0 mi Calm Calm - N/A   Unknown
4:55 AM 24.8 °F 24.8 °F 100% 30.36 in 10.0 mi Calm Calm - N/A   Unknown
5:15 AM 24.8 °F 23.0 °F 93% 30.36 in 10.0 mi Calm Calm - N/A   Unknown
5:35 AM 24.8 °F 23.0 °F 93% 30.36 in 10.0 mi Calm Calm - N/A   Unknown
5:55 AM 24.8 °F 23.0 °F 93% 30.36 in 10.0 mi Calm Calm - N/A   Unknown
6:15 AM 24.8 °F 23.0 °F 93% 30.36 in 10.0 mi Calm Calm - N/A   Unknown
6:35 AM 24.8 °F 23.0 °F 93% 30.36 in 10.0 mi Calm Calm - N/A   Unknown
6:55 AM 24.8 °F 23.0 °F 93% 30.37 in 10.0 mi Calm Calm - N/A   Unknown
7:15 AM 23.0 °F 23.0 °F 100% 30.38 in 10.0 mi Calm Calm - N/A   Unknown
7:35 AM 23.0 °F 23.0 °F 100% 30.38 in 9.0 mi Calm Calm - N/A   Unknown
7:55 AM 24.8 °F 23.0 °F 93% 30.37 in 10.0 mi Calm Calm - N/A   Clear
8:15 AM 26.6 °F 26.6 °F 100% 30.38 in 10.0 mi Calm Calm - N/A   Clear
8:35 AM 28.4 °F 26.6 °F 93% 30.38 in 10.0 mi Calm Calm - N/A   Clear
8:55 AM 32.0 °F 28.4 °F 87% 30.39 in 10.0 mi Calm Calm - N/A   Clear
9:15 AM 32.0 °F 28.4 °F 87% 30.39 in 10.0 mi Calm Calm - N/A   Clear
9:55 AM 35.6 °F 32.0 °F 87% 30.40 in 10.0 mi Calm Calm - N/A   Clear
10:15 AM 39.2 °F 32.0 °F 75% 30.40 in 10.0 mi Calm Calm - N/A   Clear
10:35 AM 42.8 °F 32.0 °F 66% 30.39 in 10.0 mi Calm Calm - N/A Rain Light Rain
10:55 AM 44.6 °F 32.0 °F 61% 30.39 in 10.0 mi Calm Calm - N/A   Partly Cloudy
11:15 AM 48.2 °F 32.0 °F 54% 30.38 in 10.0 mi Calm Calm - N/A   Clear
11:35 AM 50.0 °F 33.8 °F 54% 30.38 in 10.0 mi WSW 3.5 mph - N/A   Clear
11:55 AM 50.0 °F 35.6 °F 58% 30.36 in 10.0 mi SW 4.6 mph - N/A   Partly Cloudy
12:15 PM 53.6 °F 35.6 °F 51% 30.36 in 10.0 mi SW 10.4 mph - N/A   Partly Cloudy
12:35 PM 53.6 °F 37.4 °F 54% 30.34 in 10.0 mi WSW 10.4 mph 16.1 mph N/A   Scattered Clouds
12:55 PM 53.6 °F 37.4 °F 54% 30.33 in 10.0 mi WSW 15.0 mph 19.6 mph N/A   Partly Cloudy
1:15 PM 55.4 °F 37.4 °F 51% 30.32 in 10.0 mi SW 16.1 mph 20.7 mph N/A   Clear
1:35 PM 55.4 °F 37.4 °F 51% 30.31 in 10.0 mi WSW 11.5 mph - N/A   Clear
1:55 PM 55.4 °F 37.4 °F 51% 30.30 in 10.0 mi SW 8.1 mph - N/A   Clear
2:15 PM 55.4 °F 37.4 °F 51% 30.30 in 10.0 mi SW 9.2 mph - N/A   Clear
2:35 PM 57.2 °F 37.4 °F 48% 30.29 in 10.0 mi SW 11.5 mph - N/A   Clear
2:55 PM 55.4 °F 37.4 °F 51% 30.28 in 10.0 mi WSW 8.1 mph - N/A   Clear
3:15 PM 55.4 °F 37.4 °F 51% 30.28 in 10.0 mi SW 9.2 mph - N/A   Clear
3:35 PM 55.4 °F 37.4 °F 51% 30.27 in 10.0 mi SW 9.2 mph - N/A   Clear
3:55 PM 55.4 °F 39.2 °F 54% 30.27 in 10.0 mi SW 10.4 mph - N/A   Clear
4:15 PM 55.4 °F 39.2 °F 54% 30.27 in 10.0 mi SW 10.4 mph - N/A   Clear
4:35 PM 55.4 °F 39.2 °F 54% 30.27 in 10.0 mi SSW 6.9 mph - N/A   Clear
4:55 PM 53.6 °F 39.2 °F 58% 30.27 in 10.0 mi SW 4.6 mph - N/A   Clear
5:15 PM 51.8 °F 39.2 °F 62% 30.27 in 10.0 mi Calm Calm - N/A   Unknown
5:35 PM 48.2 °F 39.2 °F 71% 30.27 in 10.0 mi Calm Calm - N/A   Unknown
5:55 PM 44.6 °F 39.2 °F 81% 30.28 in 10.0 mi Calm Calm - N/A   Unknown
6:15 PM 44.6 °F 39.2 °F 81% 30.29 in 10.0 mi Calm Calm - N/A   Unknown
6:35 PM 42.8 °F 37.4 °F 81% 30.29 in 10.0 mi Calm Calm - N/A   Unknown
6:55 PM 41.0 °F 37.4 °F 87% 30.29 in 10.0 mi Calm Calm - N/A   Unknown
7:15 PM 41.0 °F 37.4 °F 87% 30.29 in 10.0 mi Calm Calm - N/A   Unknown
7:35 PM 39.2 °F 37.4 °F 93% 30.30 in 10.0 mi Calm Calm - N/A   Unknown
7:55 PM 39.2 °F 35.6 °F 87% 30.30 in 10.0 mi Calm Calm - N/A   Unknown
8:15 PM 39.2 °F 37.4 °F 93% 30.31 in 10.0 mi Calm Calm - N/A   Unknown
8:35 PM 41.0 °F 37.4 °F 87% 30.31 in 10.0 mi Calm Calm - N/A   Unknown
8:55 PM 39.2 °F 37.4 °F 93% 30.30 in 10.0 mi Calm Calm - N/A   Unknown
9:15 PM 39.2 °F 37.4 °F 93% 30.31 in 10.0 mi Calm Calm - N/A   Unknown
9:35 PM 39.2 °F 37.4 °F 93% 30.31 in 10.0 mi Calm Calm - N/A   Unknown
9:55 PM 37.4 °F 35.6 °F 93% 30.31 in 10.0 mi Calm Calm - N/A   Unknown
10:15 PM 37.4 °F 35.6 °F 93% 30.31 in 10.0 mi Calm Calm - N/A   Unknown
10:35 PM 37.4 °F 35.6 °F 93% 30.32 in 9.0 mi Calm Calm - N/A   Unknown
10:55 PM 37.4 °F 35.6 °F 93% 30.32 in 10.0 mi Calm Calm - N/A   Unknown
11:15 PM 35.6 °F 35.6 °F 100% 30.32 in 8.0 mi Calm Calm - N/A   Unknown
11:35 PM 33.8 °F 33.8 °F 100% 30.32 in 7.0 mi Calm Calm - N/A   Unknown
11:55 PM 35.6 °F 33.8 °F 93% 30.32 in 8.0 mi Calm Calm - N/A   Unknown